User: anonymous   Login
Location: Carrer del Canonge
(41.4901°N, 2.2931°E)
Time: 01:27:43
(UTC+00:00)
Language:

Cosmos 2026 Rocket - Orbit

View from above orbital plane
View from above orbital plane
View from above satellite
View from above satellite

Ground track
Ground track

The orbit data is extracted from the following two-line orbital elements,

1 20046U 89042B   20328.58539732 -.00000017 +00000-0 -32676-4 0  9990
2 20046 082.9371 087.5514 0042791 146.9704 213.4140 13.78204143581965
Epoch (UTC): 23 November 2020 14:02:58
Eccentricity: 0.0042791
inclination: 82.9371°
perigee height: 939 km
apogee height: 1002 km
right ascension of ascending node: 87.5514°
argument of perigee: 146.9704°
revolutions per day: 13.78204143
mean anomaly at epoch: 213.4140°
orbit number at epoch: 58196

The dashed part of the orbit path shows where the satellite is in the earth's shadow,  

DLR